DW3845 Weather Reports


Display with metric or nautical units.
time (UTC)temp
F
wind
direction
speed
MPH
gust
MPH
rain 1hr
in
rain 24hr
in
rain mn
in
humidity
%
barometer
mb
20260901170027 66 15 3.0 10.0 0.00 0.00 0.00 55 993.7
20260901164525 66 239 3.0 9.0 0.00 0.00 0.00 56 993.7
20260901163021 65 236 1.0 6.0 0.00 0.00 0.00 59 994.2
20260901161518 63 315 0.0 3.0 0.00 0.00 0.00 61 994.6
20260901160023 63 207 3.0 9.0 0.00 0.00 0.00 62 994.3
20260901154514 63 290 0.0 4.0 0.00 0.00 0.00 62 994.5
20260901153019 60 63 0.0 3.0 0.00 0.00 0.00 71 994.6
20260901151505 59 236 1.0 3.0 0.00 0.00 0.00 71 994.9
20260901150007 59 144 0.0 3.0 0.00 0.00 0.00 73 994.9
20260901144502 58 271 0.0 4.0 0.00 0.00 0.00 72 994.8
20260901143059 57 273 0.0 3.0 0.00 0.00 0.00 73 994.8
20260901141603 57 243 0.0 2.0 0.00 0.00 0.00 73 994.8
20260901140058 56 245 0.0 4.0 0.00 0.00 0.00 74 994.9
20260901134554 55 248 0.0 3.0 0.00 0.00 0.00 76 994.8
20260901133054 54 50 0.0 1.0 0.00 0.00 0.00 76 994.9
20260901131555 55 290 0.0 1.0 0.00 0.00 0.00 75 995.0
20260901130052 54 252 1.0 2.0 0.00 0.00 0.00 76 995.2
20260901124551 54 47 0.0 2.0 0.00 0.00 0.00 76 995.1
20260901123053 53 95 1.0 4.0 0.00 0.00 0.00 76 995.1
20260901121551 53 280 0.0 2.0 0.00 0.00 0.00 77 995.1
20260901120106 52 224 1.0 3.0 0.00 0.00 0.00 78 995.0
20260901114551 52 49 0.0 3.0 0.00 0.00 0.00 77 995.1
20260901113055 52 40 0.0 2.0 0.00 0.00 0.00 77 995.0
20260901111544 52 49 0.0 2.0 0.00 0.00 0.00 77 995.1
20260901110049 52 27 1.0 4.0 0.00 0.00 0.00 76 995.2
20260901104541 54 323 0.0 3.0 0.00 0.00 0.00 74 995.1
20260901103051 55 63 1.0 2.0 0.00 0.00 0.00 71 995.1
20260901101539 55 290 1.0 3.0 0.00 0.00 0.00 70 994.9
20260901100039 56 16 1.0 2.0 0.00 0.00 0.00 69 995.1
20260901094534 55 256 1.0 3.0 0.00 0.00 0.00 71 995.0
20260901093032 54 291 1.0 4.0 0.00 0.00 0.00 73 995.1
20260901091530 51 46 0.0 4.0 0.00 0.00 0.00 75 995.3
20260901090028 51 54 0.0 3.0 0.00 0.00 0.00 75 995.2
20260901084527 51 63 1.0 6.0 0.00 0.00 0.00 73 995.3
20260901083024 51 57 0.0 5.0 0.00 0.00 0.00 73 995.4
20260901081521 52 49 1.0 3.0 0.00 0.00 0.00 71 995.4
20260901080025 52 44 1.0 3.0 0.00 0.00 0.00 69 995.5
20260901074517 53 43 1.0 3.0 0.00 0.00 0.00 68 995.5
20260901073015 53 49 0.0 3.0 0.00 0.00 0.00 69 995.5
20260901071511 54 57 0.0 4.0 0.00 0.00 0.00 66 995.4
20260901070008 54 43 1.0 2.0 0.00 0.00 0.00 66 995.3
20260901064517 55 34 2.0 3.0 0.00 0.00 0.00 64 995.4
20260901063023 56 54 0.0 3.0 0.00 0.00 0.00 62 995.3
20260901061507 56 41 0.0 3.0 0.00 0.00 0.00 60 995.4
20260901060005 57 298 0.0 5.0 0.00 0.00 0.00 60 995.5
20260901054504 55 49 0.0 2.0 0.00 0.00 0.00 61 995.6
20260901053002 55 51 1.0 4.0 0.00 0.00 0.00 60 995.6
20260901051502 55 40 1.0 3.0 0.00 0.00 0.00 60 995.9
20260901050003 56 44 1.0 3.0 0.00 0.00 0.00 58 996.0
20260901044502 56 46 2.0 4.0 0.00 0.00 0.00 56 996.1
20260901043100 57 44 2.0 3.0 0.00 0.00 0.00 56 996.2
20260901041600 57 47 1.0 3.0 0.00 0.00 0.00 56 996.1
20260901040059 58 46 2.0 4.0 0.00 0.00 0.00 55 996.1
20260901034558 59 46 1.0 3.0 0.00 0.00 0.00 54 996.1
20260901033059 59 43 1.0 2.0 0.00 0.00 0.00 53 996.1
20260901031558 60 42 1.0 2.0 0.00 0.00 0.00 53 996.0
20260901030057 61 43 2.0 2.0 0.00 0.00 0.00 50 995.9
20260901024557 62 46 2.0 3.0 0.00 0.00 0.00 49 995.8
20260901023056 64 46 1.0 2.0 0.00 0.00 0.00 47 995.9
20260901021555 66 46 2.0 3.0 0.00 0.00 0.00 44 995.9
20260901020056 68 44 2.0 2.0 0.00 0.00 0.00 41 995.9
20260901014554 71 323 0.0 1.0 0.00 0.00 0.00 37 996.1
20260901013102 73 278 0.0 1.0 0.00 0.00 0.00 33 996.2
20260901011550 75 276 0.0 1.0 0.00 0.00 0.00 32 996.3
20260901010049 76 260 0.0 1.0 0.00 0.00 0.00 31 996.4
20260901004548 76 300 0.0 2.0 0.00 0.00 0.00 31 996.5
20260901003046 77 271 0.0 2.0 0.00 0.00 0.00 31 996.6
20260901001545 77 152 0.0 2.0 0.00 0.00 0.00 30 996.7
20260901000045 77 256 0.0 3.0 0.00 0.00 0.00 30 996.8
20260831234550 78 266 1.0 5.0 0.00 0.00 0.00 29 997.0
20260831233041 79 158 3.0 5.0 0.00 0.00 0.00 28 997.2
20260831231537 79 142 1.0 4.0 0.00 0.00 0.00 29 997.5
20260831230039 79 215 1.0 4.0 0.00 0.00 0.00 29 997.7
20260831224535 79 326 0.0 4.0 0.00 0.00 0.00 29 997.7
20260831223029 79 53 1.0 3.0 0.00 0.00 0.00 29 997.9
20260831221526 78 200 2.0 8.0 0.00 0.00 0.00 30 998.1
20260831220023 77 149 2.0 6.0 0.00 0.00 0.00 31 998.3
20260831214523 78 160 1.0 5.0 0.00 0.00 0.00 32 998.4
20260831213016 77 84 2.0 6.0 0.00 0.00 0.00 33 998.6
20260831211514 77 59 1.0 5.0 0.00 0.00 0.00 33 998.9
20260831210026 76 62 2.0 5.0 0.00 0.00 0.00 33 999.0
20260831204509 75 124 3.0 6.0 0.00 0.00 0.00 34 999.4
20260831203004 74 136 0.0 5.0 0.00 0.00 0.00 36 999.6
20260831201502 74 22 4.0 7.0 0.00 0.00 0.00 35 999.9
20260831200059 73 358 1.0 7.0 0.00 0.00 0.00 36 1000.2
20260831194600 73 290 1.0 6.0 0.00 0.00 0.00 37 1000.4
20260831193126 72 13 1.0 5.0 0.00 0.00 0.00 37 1000.6
20260831191552 73 203 2.0 6.0 0.00 0.00 0.00 38 1000.9
20260831190050 72 189 1.0 3.0 0.00 0.00 0.00 39 1001.1
20260831184545 71 186 1.0 4.0 0.00 0.00 0.00 41 1001.3
20260831183045 70 146 1.0 3.0 0.00 0.00 0.00 44 1001.6
20260831181549 68 255 0.0 3.0 0.00 0.00 0.00 47 1001.8
20260831180037 66 6 0.0 5.0 0.00 0.00 0.00 52 1002.1
20260831174530 65 262 0.0 3.0 0.00 0.00 0.00 51 1002.1
20260831173027 64 266 0.0 3.0 0.00 0.00 0.00 57 1002.4
20260831171522 63 217 0.0 3.0 0.00 0.00 0.00 59 1002.5